Regional Weather Roundup
Issued by NWS

Home | Current Version | Previous Version | Graphics & Text | Print | Product List | Glossary On
Versions: 1 2 3 4 5 6 7 8 9 10 11 12 13 14 15 16 17 18 19 20 21 22 23 24 25 26 27 28 29 30 31 32 33 34 35 36 37 38 39 40 41 42 43 44 45 46 47 48 49 50
000
ASUS43 KOAX 260010
RWRNE

WEATHER ROUNDUP FOR NEBRASKA
NATIONAL WEATHER SERVICE OMAHA NE
600 PM CST SUN JAN 25 2015

NOTES: SATELLITE DATA IS BEING USED TO AUGMENT CLOUD COVER ABOVE
       12000 FEET.
       "FAIR" INDICATES FEW OR NO CLOUDS BELOW 12,000 FEET WITH NO
       SIGNIFICANT WEATHER AND/OR OBSTRUCTIONS TO VISIBILITY.

  * THESE STATIONS DO NOT REPORT WEATHER SUCH AS RAIN...SNOW OR FOG.

NEZ001>004-019>022-054>056-260100-
NEBRASKA PANHANDLE

CITY           SKY/WX    TMP DP  RH WIND       PRES   REMARKS
SCOTTSBLUFF    CLEAR     47  34  60 W9        30.06R
6HR MIN TEMP:  43; 6HR MAX TEMP:  54; 6HR PCP: TRACE;

ALLIANCE       CLOUDY    43  34  70 W7        30.03S
6HR MIN TEMP:  43; 6HR MAX TEMP:  48;

CHADRON        MOCLDY    46  33  60 W3        30.01R
6HR MIN TEMP:  46; 6HR MAX TEMP:  53;

KIMBALL        CLEAR     47  31  54 NW15      30.09R
SIDNEY         CLEAR     46  30  53 W10       30.09R
6HR MIN TEMP:  45; 6HR MAX TEMP:  54;

$$

NEZ057>060-069>072-079>082-260100-
SOUTHWEST NEBRASKA

CITY           SKY/WX    TMP DP  RH WIND       PRES   REMARKS
NORTH PLATTE   CLEAR     42  21  43 N5        30.05S
6HR MIN TEMP:  42; 6HR MAX TEMP:  52;

IMPERIAL       PTCLDY    47  31  53 NW6       30.07S
6HR MIN TEMP:  47; 6HR MAX TEMP:  55;

LEXINGTON      PTCLDY    39  28  66 E6        30.06S WCI  35
MCCOOK         PTCLDY    47  16  29 CALM      30.07R
6HR MIN TEMP:  47; 6HR MAX TEMP:  56;

OGALLALA       CLOUDY    46  34  62 N3        30.05S
$$

NEZ005>010-023>029-035>040-094-260100-
NORTH CENTRAL NEBRASKA

CITY           SKY/WX    TMP DP  RH WIND       PRES   REMARKS
VALENTINE      CLOUDY    35  26  69 SW3       29.99F
6HR MIN TEMP:  35; 6HR MAX TEMP:  46;

AINSWORTH      CLEAR     34  28  77 S5        30.01F WCI  30
BROKEN BOW     PTCLDY    36  27  69 CALM      30.04F
6HR MIN TEMP:  36; 6HR MAX TEMP:  45;

O`NEILL        MOCLDY    37  33  84 W3        30.04F
ORD            PTCLDY    32  25  75 CALM      30.05F
6HR MIN TEMP:  32; 6HR MAX TEMP:  42;

THEDFORD       MOCLDY    43  24  48 CALM      30.03F
$$

NEZ041-046>049-061>064-073>077-083>087-260100-
SOUTH CENTRAL NEBRASKA

CITY           SKY/WX    TMP DP  RH WIND       PRES   REMARKS
GRAND ISLAND   MOCLDY    37  27  67 NW8       30.09R WCI  31
6HR MIN TEMP:  37; 6HR MAX TEMP:  42;

AURORA         CLOUDY    38  29  71 NW7       30.08S WCI  33
HASTINGS       PTCLDY    35  25  66 N6        30.08S WCI  30
6HR MIN TEMP:  35; 6HR MAX TEMP:  45;

HEBRON         MOCLDY    40  30  66 N6        30.10R
HOLDREGE       CLEAR     35  24  62 NE5       30.07S WCI  31
KEARNEY *      CLEAR     37  27  65 N5        30.08S WCI  34
YORK           MOCLDY    36  32  87 NW7       30.09R WCI  30
$$

NEZ011>018-030>034-042>045-260100-
NORTHEAST NEBRASKA

CITY           SKY/WX    TMP DP  RH WIND       PRES   REMARKS
NORFOLK        CLOUDY    37  32  82 CALM      30.05F
6HR MIN TEMP:  35; 6HR MAX TEMP:  40;

ALBION         CLOUDY    38  32  79 CALM      30.07S
BLAIR          CLOUDY    38  32  78 NW5       30.06S WCI  35
COLUMBUS *     CLOUDY    37  28  70 N9        30.09R WCI  31
FREMONT        CLOUDY    37  32  82 CALM      30.08R
TEKAMAH        CLOUDY    37  33  85 W10       30.08R WCI  30
6HR MIN TEMP:  37; 6HR MAX TEMP:  42;

WAYNE          CLOUDY    35  32  88 CALM      30.07S
$$

NEZ050>053-065>068-078-088>093-260100-
SOUTHEAST NEBRASKA

CITY           SKY/WX    TMP DP  RH WIND       PRES   REMARKS
LINCOLN        CLOUDY    37  30  75 N5        30.10S WCI  33
6HR MIN TEMP:  37; 6HR MAX TEMP:  40;

OMAHA EPPLEY   CLOUDY    38  32  79 NW6       30.08R WCI  33
6HR MIN TEMP:  38; 6HR MAX TEMP:  43;

BEATRICE       CLOUDY    37  31  80 NE3       30.09R
FALLS CITY     CLOUDY    38  30  73 N5        30.08R WCI  34
6HR MIN TEMP:  37; 6HR MAX TEMP:  40;

NEBRASKA CITY  CLOUDY    38  25  59 N8        30.08S WCI  32
PLATTSMOUTH    CLOUDY    37  28  69 N5        30.07S WCI  34
$$

NEZ044-045-051>053-067-260100-
OMAHA AREA

CITY           SKY/WX    TMP DP  RH WIND       PRES   REMARKS
OMAHA EPPLEY   CLOUDY    38  32  79 NW6       30.08R WCI  33
6HR MIN TEMP:  38; 6HR MAX TEMP:  43;

BLAIR          CLOUDY    38  32  78 NW5       30.06S WCI  35
FREMONT        CLOUDY    37  32  82 CALM      30.08R
MILLARD        CLOUDY    40  32  73 NW6       30.08S
OFFUTT AFB     CLOUDY    39  30  70 N7        30.07S WCI  34
PLATTSMOUTH    CLOUDY    37  28  69 N5        30.07S WCI  34
WAHOO          CLOUDY    37  31  79 N3        30.08S
$$



USA.gov is the U.S. government's official web portal to all federal, state and local government web resources and services.